Flight Track Log - Related Links

Times and Time Zones

All times are in EST time to prevent confusion due to time zone crossing. See the SWA4232 flight status page for this flight to view local times or setup timezone preferences in your user account.


Time Position Orientation Groundspeed Altitude Reporting Facility
EST Latitude Longitude Course Direction KTS MPH feet Rate Location/Type
Sat 10:49:23 AM 35.8347 -78.8331 223° Southwest 166 191 2,600  Level Washington Center
Sat 10:50:23 AM 35.8039 -78.8933 238° Southwest 229 264 5,300 1,899 Climbing Washington Center
Sat 10:51:42 AM 35.8114 -78.9961 275° West 282 325 7,000 1,899 Climbing Washington Center
Sat 10:52:42 AM 35.8192 -79.0861 276° West 289 333 9,700 2,430 Climbing Washington Center
Sat 10:53:43 AM 35.8283 -79.1992 276° West 292 336 11,900 1,160 Climbing Washington Center
Sat 10:54:00 AM 36.0870 -79.5537 289° West  Level Estimated
Sat 10:54:41 AM 35.8333 -79.3069 273° West 338 389 12,000  Level Washington Center
Sat 10:55:41 AM 35.8250 -79.4372 266° West 347 399 13,000 2,050 Climbing Washington Center
Sat 10:56:41 AM 35.8175 -79.5419 265° West 347 399 16,100 2,769 Climbing Washington Center
Sat 10:57:51 AM 35.7892 -79.6867 256° West 374 430 19,000 2,492 Climbing Atlanta Center
Sat 10:58:51 AM 35.7686 -79.8108 259° West 374 430 21,500 2,600 Climbing Atlanta Center
Sat 10:59:51 AM 35.7439 -79.9503 258° West 380 437 24,200 2,300 Climbing Atlanta Center
Sat 11:00:51 AM 35.7192 -80.0844 257° West 385 443 26,100 1,850 Climbing Atlanta Center
Sat 11:01:51 AM 35.6964 -80.2183 258° West 397 457 27,900 1,950 Climbing Atlanta Center
Sat 11:02:51 AM 35.6733 -80.3525 258° West 402 463 30,000 1,050 Climbing Atlanta Center
Sat 11:03:51 AM 35.6561 -80.4758 260° West 388 447 30,000  Level Atlanta Center
Sat 11:04:51 AM 35.6619 -80.6033 273° West 382 440 30,000 450 Level Atlanta Center
Sat 11:05:51 AM 35.6694 -80.7311 274° West 377 434 30,900 1,450 Climbing Atlanta Center
Sat 11:06:51 AM 35.6769 -80.8558 274° West 372 428 32,900 1,950 Climbing Atlanta Center
Sat 11:07:51 AM 35.6864 -80.9808 275° West 372 428 34,800 1,700 Climbing Atlanta Center
Sat 11:08:51 AM 35.6936 -81.1008 274° West 367 422 36,300 1,200 Climbing Atlanta Center
Sat 11:09:51 AM 35.6964 -81.2233 272° West 362 417 37,200 800 Climbing Atlanta Center
Sat 11:10:51 AM 35.7367 -81.3500 291° West 373 429 37,900 400 Climbing Atlanta Center
Sat 11:11:51 AM 35.7664 -81.4692 287° West 373 429 38,000 50 Climbing Atlanta Center
Sat 11:12:51 AM 35.8064 -81.5831 293° West 373 429 38,000  Level Atlanta Center
Sat 11:13:51 AM 35.8442 -81.7000 292° West 368 423 38,000  Level Atlanta Center
Sat 11:14:51 AM 35.8525 -81.8200 275° West 360 414 38,000  Level Atlanta Center
Sat 11:15:51 AM 35.8547 -81.9431 271° West 360 414 38,000  Level Atlanta Center
Sat 11:16:51 AM 35.8567 -82.0683 271° West 360 414 38,000  Level Atlanta Center
Sat 11:17:51 AM 35.8628 -82.1861 274° West 360 414 38,000  Level Atlanta Center
Sat 11:18:51 AM 35.8644 -82.2964 271° West 360 414 38,000  Level Atlanta Center
Sat 11:19:51 AM 35.8683 -82.4269 272° West 355 409 38,000  Level Atlanta Center
Sat 11:20:51 AM 35.8719 -82.5447 272° West 350 403 38,000  Level Atlanta Center
Sat 11:21:51 AM 35.8753 -82.6625 272° West 342 394 38,000  Level Atlanta Center
Sat 11:22:51 AM 35.8767 -82.7806 271° West 347 399 38,000  Level Atlanta Center
Sat 11:23:51 AM 35.8797 -82.9008 272° West 347 399 38,000  Level Atlanta Center
Sat 11:24:51 AM 35.8831 -83.0161 272° West 347 399 38,000  Level Atlanta Center
Sat 11:25:51 AM 35.8861 -83.1367 272° West 347 399 38,000  Level Atlanta Center
Sat 11:26:51 AM 35.8908 -83.2442 273° West 347 399 38,000  Level Atlanta Center
Sat 11:27:51 AM 35.8958 -83.3594 273° West 347 399 38,000  Level Atlanta Center
Sat 11:28:51 AM 35.8964 -83.4825 270° West 347 399 38,000  Level Atlanta Center
Sat 11:29:51 AM 35.8989 -83.6003 272° West 347 399 38,000  Level Atlanta Center
Sat 11:30:51 AM 35.9014 -83.7233 271° West 347 399 38,000  Level Atlanta Center
Sat 11:31:51 AM 35.9039 -83.8414 272° West 347 399 38,000  Level Atlanta Center
Sat 11:32:51 AM 35.9289 -83.9592 285° West 352 405 38,000  Level Atlanta Center
Sat 11:33:51 AM 35.9747 -84.0669 298° West 350 403 38,000  Level Atlanta Center
Sat 11:34:51 AM 36.0061 -84.1850 288° West 350 403 38,000  Level Atlanta Center
Sat 11:35:51 AM 36.0372 -84.3006 288° West 355 409 38,000  Level Atlanta Center
Sat 11:36:51 AM 36.0681 -84.4189 288° West 355 409 38,000  Level Atlanta Center
Sat 11:37:51 AM 36.1011 -84.5322 290° West 355 409 38,000  Level Atlanta Center
Sat 11:39:39 AM 36.1558 -84.7367 288° West 358 412 38,000  Level Memphis Center
Sat 11:40:41 AM 36.1939 -84.8789 288° West 364 419 38,000  Level Memphis Center
Sat 11:41:43 AM 36.2247 -84.9978 288° West 366 421 38,000  Level Memphis Center
Sat 11:42:45 AM 36.2553 -85.1167 288° West 366 421 38,000  Level Memphis Center
Sat 11:43:47 AM 36.2858 -85.2342 288° West 361 415 38,000  Level Memphis Center
Sat 11:44:49 AM 36.3158 -85.3522 288° West 361 415 38,000  Level Memphis Center
Sat 11:45:51 AM 36.3522 -85.4928 288° West 359 413 38,000  Level Memphis Center
Sat 11:46:53 AM 36.3822 -85.6103 288° West 358 412 38,000  Level Memphis Center
Sat 11:47:55 AM 36.4231 -85.7233 294° West 362 417 38,000  Level Memphis Center
Sat 11:48:57 AM 36.4978 -85.8106 317° Northwest 385 443 38,000  Level Memphis Center
Sat 11:49:59 AM 36.5936 -85.9181 318° Northwest 394 453 38,000  Level Memphis Center
Sat 11:51:01 AM 36.6744 -86.0069 319° Northwest 389 448 38,000  Level Memphis Center
Sat 11:52:03 AM 36.7539 -86.0942 319° Northwest 383 441 38,000  Level Memphis Center
Sat 11:53:06 AM 36.8325 -86.1797 319° Northwest 376 433 38,000  Level Memphis Center
Sat 11:54:08 AM 36.9108 -86.2653 319° Northwest 373 429 38,000  Level Memphis Center
Sat 11:55:10 AM 36.9694 -86.3650 306° West 362 417 38,000  Level Memphis Center
Sat 11:56:12 AM 36.9975 -86.5036 284° West 351 404 38,000  Level Memphis Center
Sat 11:57:14 AM 37.0217 -86.6233 284° West 353 406 38,000  Level Memphis Center
Sat 11:58:16 AM 37.0450 -86.7431 284° West 353 406 38,000  Level Memphis Center
Sat 11:59:18 AM 37.0678 -86.8647 283° West 356 410 38,000  Level Memphis Center
Sat 12:00:20 PM 37.0911 -86.9847 284° West 354 407 38,000  Level Memphis Center
Sat 12:01:22 PM 37.1150 -87.1069 284° West 356 410 38,000  Level Memphis Center
Sat 12:02:24 PM 37.1419 -87.2483 283° West 356 410 38,000  Level Memphis Center
Sat 12:03:26 PM 37.1639 -87.3706 283° West 357 411 38,000  Level Memphis Center
Sat 12:04:28 PM 37.1869 -87.4925 283° West 357 411 38,000  Level Memphis Center
Sat 12:05:30 PM 37.2108 -87.6136 284° West 355 409 38,000  Level Memphis Center
Sat 12:06:32 PM 37.2317 -87.7372 282° West 358 412 38,000  Level Memphis Center
Sat 12:07:34 PM 37.2556 -87.8594 284° West 359 413 38,000  Level Memphis Center
Sat 12:08:36 PM 37.2786 -87.9833 283° West 359 413 38,000  Level Memphis Center
Sat 12:09:38 PM 37.2997 -88.1072 282° West 362 417 38,000  Level Memphis Center
Sat 12:10:40 PM 37.3281 -88.2553 284° West 363 418 38,000  Level Memphis Center
Sat 12:11:42 PM 37.3500 -88.3811 282° West 368 423 38,000  Level Memphis Center
Sat 12:12:44 PM 37.3722 -88.5061 283° West 368 423 38,000  Level Memphis Center
Sat 12:13:46 PM 37.3944 -88.6314 283° West 368 423 38,000  Level Memphis Center
Sat 12:14:48 PM 37.4164 -88.7572 282° West 369 425 38,000  Level Memphis Center
Sat 12:15:50 PM 37.4333 -88.8569 282° West 367 422 38,000 484 Level Memphis Center
Sat 12:16:52 PM 37.4639 -89.0311 283° West 366 421 39,000 484 Climbing Memphis Center
Sat 12:17:54 PM 37.4850 -89.1561 282° West 365 420 39,000  Level Memphis Center
Sat 12:18:57 PM 37.5072 -89.2828 283° West 370 426 39,000  Level Memphis Center
Sat 12:19:59 PM 37.5303 -89.4097 283° West 371 427 39,000  Level Memphis Center
Sat 12:21:01 PM 37.5503 -89.5394 281° West 374 430 39,000  Level Memphis Center
Sat 12:22:03 PM 37.5764 -89.6931 282° West 375 432 39,000  Level Memphis Center
Sat 12:23:05 PM 37.5972 -89.8206 282° West 373 429 39,000  Level Memphis Center
Sat 12:24:07 PM 37.6192 -89.9483 282° West 373 429 39,000  Level Memphis Center
Sat 12:25:09 PM 37.6397 -90.0764 281° West 373 429 39,000  Level Memphis Center
Sat 12:26:11 PM 37.6611 -90.2042 282° West 374 430 39,000  Level Memphis Center
Sat 12:27:31 PM 37.6914 -90.3911 282° West 377 434 39,000  Level Kansas City Center
Sat 12:28:33 PM 37.7119 -90.5228 281° West 379 436 39,000  Level Kansas City Center
Sat 12:29:35 PM 37.7328 -90.6553 281° West 381 438 39,000  Level Kansas City Center
Sat 12:30:37 PM 37.7514 -90.7875 280° West 382 440 39,000  Level Kansas City Center
Sat 12:31:39 PM 37.7531 -90.9217 271° West 383 441 39,000  Level Kansas City Center
Sat 12:32:41 PM 37.7525 -91.0550 281° West 381 438 39,000  Level Kansas City Center
Sat 12:33:00 PM 37.7812 -91.0991 281° West  Level FlightAware Approximate
Sat 12:34:45 PM 37.7556 -91.3506 271° West 382 440 39,000  Level Kansas City Center
Sat 12:35:47 PM 37.7558 -91.4883 270° West 386 444 39,000  Level Kansas City Center
Sat 12:36:49 PM 37.7564 -91.6283 270° West 392 451 39,000  Level Kansas City Center
Sat 12:37:51 PM 37.7669 -91.7681 276° West 408 470 39,000  Level Kansas City Center
Sat 12:38:53 PM 37.7961 -91.9083 285° West 412 474 39,000  Level Kansas City Center
Sat 12:39:55 PM 37.8236 -92.0486 284° West 410 472 39,000  Level Kansas City Center
Sat 12:40:57 PM 37.8558 -92.2108 284° West 410 472 39,000  Level Kansas City Center
Sat 12:41:59 PM 37.8811 -92.3492 283° West 408 470 39,000  Level Kansas City Center
Sat 12:43:01 PM 37.9072 -92.4894 283° West 410 472 39,000  Level Kansas City Center
Sat 12:44:03 PM 37.9353 -92.6281 284° West 409 471 39,000  Level Kansas City Center
Sat 12:45:05 PM 37.9650 -92.7869 283° West 407 468 39,000  Level Kansas City Center
Sat 12:46:07 PM 37.9914 -92.9297 283° West 411 473 39,000  Level Kansas City Center
Sat 12:47:09 PM 38.0183 -93.0750 283° West 418 481 39,000  Level Kansas City Center
Sat 12:48:12 PM 38.0458 -93.2192 284° West 419 482 39,000  Level Kansas City Center
Sat 12:49:13 PM 38.0728 -93.3644 283° West 421 484 39,000  Level Kansas City Center
Sat 12:50:15 PM 38.0994 -93.5108 283° West 424 488 39,000  Level Kansas City Center
Sat 12:51:17 PM 38.1250 -93.6561 283° West 422 486 39,000  Level Kansas City Center
Sat 12:52:19 PM 38.1564 -93.8311 283° West 423 487 39,000  Level Kansas City Center
Sat 12:53:21 PM 38.1833 -93.9789 283° West 426 490 39,000  Level Kansas City Center
Sat 12:54:23 PM 38.2081 -94.1144 283° West 427 491 39,000  Level Kansas City Center
Sat 12:55:27 PM 38.2369 -94.2819 282° West 430 495 39,000  Level Kansas City Center
Sat 12:56:28 PM 38.2597 -94.4242 282° West 430 495 39,000  Level Kansas City Center
Sat 12:57:30 PM 38.2928 -94.5878 284° West 429 494 39,000  Level Kansas City Center
Sat 12:59:34 PM 38.3614 -94.8906 286° West 428 493 39,000 -323 Level Kansas City Center
Sat 01:00:36 PM 38.3917 -95.0308 285° West 430 495 38,000 -484 Descending Kansas City Center
Sat 01:01:38 PM 38.4278 -95.1953 286° West 430 495 38,000  Level Kansas City Center
Sat 01:02:40 PM 38.4583 -95.3378 285° West 434 499 38,000  Level Kansas City Center
Sat 01:03:42 PM 38.4892 -95.4825 285° West 438 504 38,000  Level Kansas City Center
Sat 01:04:44 PM 38.5256 -95.6500 286° West 436 502 38,000  Level Kansas City Center
Sat 01:05:46 PM 38.5556 -95.7925 285° West 432 497 38,000  Level Kansas City Center
Sat 01:06:48 PM 38.5900 -95.9575 285° West 430 495 38,000  Level Kansas City Center
Sat 01:07:50 PM 38.6197 -96.1008 285° West 433 498 38,000  Level Kansas City Center
Sat 01:08:52 PM 38.6550 -96.2689 285° West 436 502 38,000  Level Kansas City Center
Sat 01:09:54 PM 38.6847 -96.4131 285° West 438 504 38,000  Level Kansas City Center
Sat 01:10:56 PM 38.7192 -96.5806 285° West 435 501 38,000  Level Kansas City Center
Sat 01:11:58 PM 38.7386 -96.7189 280° West 431 496 38,000  Level Kansas City Center
Sat 01:13:00 PM 38.7436 -96.8717 272° West 431 496 38,000  Level Kansas City Center
Sat 01:14:02 PM 38.7519 -97.0514 273° West 425 489 38,000  Level Kansas City Center
Sat 01:15:04 PM 38.7572 -97.2033 273° West 426 490 38,000  Level Kansas City Center
Sat 01:16:06 PM 38.7631 -97.3531 273° West 424 488 38,000  Level Kansas City Center
Sat 01:17:08 PM 38.7689 -97.5036 273° West 425 489 38,000  Level Kansas City Center
Sat 01:18:10 PM 38.7750 -97.6667 273° West 425 489 38,000  Level Kansas City Center
Sat 01:19:12 PM 38.7800 -97.8125 273° West 429 494 38,000  Level Kansas City Center
Sat 01:20:14 PM 38.7856 -97.9603 273° West 435 501 38,000  Level Kansas City Center
Sat 01:21:16 PM 38.7914 -98.1458 272° West 437 503 38,000  Level Kansas City Center
Sat 01:22:18 PM 38.7967 -98.3064 272° West 441 507 38,000  Level Kansas City Center
Sat 01:23:20 PM 38.8011 -98.4572 272° West 438 504 38,000  Level Kansas City Center
Sat 01:24:22 PM 38.8064 -98.6114 273° West 434 499 38,000  Level Kansas City Center
Sat 01:25:24 PM 38.8106 -98.7650 272° West 434 499 38,000  Level Kansas City Center
Sat 01:26:26 PM 38.8153 -98.9500 272° West 434 499 38,000  Level Kansas City Center
Sat 01:27:28 PM 38.8183 -99.1031 272° West 431 496 38,000  Level Kansas City Center
Sat 01:28:30 PM 38.8214 -99.2561 272° West 431 496 38,000  Level Kansas City Center
Sat 01:29:32 PM 38.8236 -99.4103 271° West 433 498 38,000  Level Kansas City Center
Sat 01:30:34 PM 38.8283 -99.5672 272° West 428 493 38,000  Level Kansas City Center
Sat 01:31:36 PM 38.8308 -99.7381 271° West 429 494 38,000  Level Kansas City Center
Sat 01:32:38 PM 38.8339 -99.8844 272° West 430 495 38,000  Level Kansas City Center
Sat 01:33:40 PM 38.8353 -100.0542 271° West 428 493 38,000  Level Kansas City Center
Sat 01:34:43 PM 38.8383 -100.1997 272° West 428 493 38,000  Level Kansas City Center
Sat 01:35:45 PM 38.8397 -100.3694 271° West 427 491 38,000  Level Kansas City Center
Sat 01:36:27 PM 38.8414 -100.4647 271° West 426 490 38,000  Level Denver Center
Sat 01:37:29 PM 38.8433 -100.6303 271° West 421 484 38,000  Level Denver Center
Sat 01:38:31 PM 38.8439 -100.7731 270° West 420 483 38,000  Level Denver Center
Sat 01:39:33 PM 38.8453 -100.9381 271° West 418 481 38,000  Level Denver Center
Sat 01:40:35 PM 38.8464 -101.0794 271° West 416 479 38,000  Level Denver Center
Sat 01:41:37 PM 38.8483 -101.2450 271° West 417 480 38,000  Level Denver Center
Sat 01:42:39 PM 38.8486 -101.3867 270° West 417 480 38,000 -339 Level Denver Center
Sat 01:43:41 PM 38.8494 -101.5528 270° West 419 482 37,300 -1,065 Descending Denver Center
Sat 01:44:43 PM 38.8494 -101.6944 270° West 417 480 35,800 -1,597 Descending Denver Center
Sat 01:45:45 PM 38.8492 -101.8611 270° West 418 481 34,000 -871 Descending Denver Center
Sat 01:46:47 PM 38.8464 -102.0050 269° West 422 486 34,000  Level Denver Center
Sat 01:47:49 PM 38.8431 -102.1728 269° West 422 486 34,000 -384 Level Denver Center
Sat 01:48:52 PM 38.8692 -102.3100 284° West 418 481 33,200 -816 Descending Denver Center
Sat 01:49:54 PM 38.9117 -102.4453 292° West 427 491 32,300 -919 Descending Denver Center
Sat 01:50:56 PM 38.9600 -102.6047 291° West 429 494 31,300 -968 Descending Denver Center
Sat 01:51:58 PM 39.0033 -102.7469 291° West 422 486 30,300 -1,016 Descending Denver Center
Sat 01:53:00 PM 39.0439 -102.8867 291° West 418 481 29,200 -1,016 Descending Denver Center
Sat 01:54:02 PM 39.0864 -103.0233 292° West 412 474 28,200 -968 Descending Denver Center
Sat 01:55:04 PM 39.1264 -103.1578 291° West 404 465 27,200 -1,065 Descending Denver Center
Sat 01:56:06 PM 39.1728 -103.3147 291° West 393 452 26,000 -1,306 Descending Denver Center
Sat 01:57:08 PM 39.2117 -103.4458 291° West 394 453 24,500 -1,694 Descending Denver Center
Sat 01:58:10 PM 39.2486 -103.5708 291° West 378 435 22,500 -1,935 Descending Denver Center
Sat 01:59:12 PM 39.2831 -103.6908 290° West 361 415 20,500 -1,920 Descending Denver Center
Sat 02:00:15 PM 39.3331 -103.8019 300° West 359 413 18,500 -1,728 Descending Denver Center
Sat 02:01:17 PM 39.3903 -103.9317 300° West 349 402 16,900 -1,210 Descending Denver Center
Sat 02:02:19 PM 39.4136 -104.0522 284° West 346 398 16,000 -919 Descending Denver Center
Sat 02:03:21 PM 39.4386 -104.1725 285° West 345 397 15,000 -1,016 Descending Denver Center
Sat 02:04:23 PM 39.4639 -104.3022 284° West 343 395 13,900 -1,161 Descending Denver Center
Sat 02:05:25 PM 39.4878 -104.4175 285° West 333 383 12,600 -1,597 Descending Denver Center
Sat 02:06:27 PM 39.5333 -104.5211 300° West 327 376 10,600 -1,306 Descending Denver Center
Sat 02:07:29 PM 39.6056 -104.5611 337° Northwest 287 330 9,900 -919 Descending Denver Center
Sat 02:08:31 PM 39.6683 -104.5958 337° Northwest 227 261 8,700 -1,113 Descending Denver Center
Sat 02:09:33 PM 39.7192 -104.6258 336° Northwest 195 224 7,600 -960 Descending Denver Center
Sat 02:10:36 PM 39.7642 -104.6433 343° North 163 188 6,700 -677 Descending Denver Center
Sat 02:11:37 PM 39.7950 -104.6422 North 148 170 6,200 -677 Descending Denver Center
Sat 02:12:40 PM 39.8469 -104.6406 North 145 167 5,300 -857 Descending Denver Center
Sat 02:14:00 PM 39.8500 -104.6667 North  Level FlightAware Approximate

Login

Don't have an account? Register now (free) for customized features, flight alerts, and more!